TimeEST,TemperatureF,Dew PointF,Humidity,Sea Level PressureIn,VisibilityMPH,Wind Direction,Wind SpeedMPH,Gust SpeedMPH,PrecipitationIn,Events,Conditions,WindDirDegrees,DateUTC
12:13 AM,23.0,16.7,77,30.24,10.0,South,6.9,-,N/A,,Overcast,190,2012-03-06 05:13:00
12:34 AM,23.0,16.5,76,30.24,10.0,SSW,5.8,-,N/A,,Overcast,200,2012-03-06 05:34:00
12:54 AM,23.4,16.7,76,30.24,10.0,South,5.8,-,N/A,,Overcast,180,2012-03-06 05:54:00
1:13 AM,23.4,16.7,76,30.23,10.0,South,5.8,-,N/A,,Overcast,190,2012-03-06 06:13:00
1:34 AM,23.5,16.7,75,30.23,10.0,South,4.6,-,N/A,,Overcast,190,2012-03-06 06:34:00
1:54 AM,23.7,16.7,75,30.22,10.0,South,4.6,-,N/A,,Overcast,180,2012-03-06 06:54:00
2:14 AM,23.7,17.6,77,30.22,10.0,South,6.9,-,N/A,,Overcast,190,2012-03-06 07:14:00
2:34 AM,23.5,18.5,81,30.21,10.0,SSW,6.9,-,N/A,Snow,Light Snow,200,2012-03-06 07:34:00
2:53 AM,23.4,19.2,84,30.20,10.0,South,6.9,-,N/A,,Overcast,190,2012-03-06 07:53:00
3:14 AM,23.5,19.6,85,30.20,7.0,South,8.1,-,N/A,Snow,Light Snow,190,2012-03-06 08:14:00
3:34 AM,23.5,20.1,87,30.19,10.0,South,8.1,-,N/A,,Overcast,180,2012-03-06 08:34:00
3:54 AM,23.4,20.1,87,30.18,10.0,South,5.8,-,N/A,,Overcast,170,2012-03-06 08:54:00
4:13 AM,23.0,19.8,87,30.16,10.0,South,4.6,-,N/A,,Overcast,170,2012-03-06 09:13:00
4:34 AM,23.0,19.4,86,30.15,10.0,SSE,5.8,-,N/A,,Overcast,160,2012-03-06 09:34:00
4:54 AM,23.0,19.4,86,30.15,10.0,South,6.9,-,N/A,,Overcast,170,2012-03-06 09:54:00
5:14 AM,23.4,19.4,85,30.15,10.0,South,6.9,-,N/A,,Overcast,170,2012-03-06 10:14:00
5:34 AM,23.5,19.6,85,30.14,10.0,South,8.1,-,N/A,,Overcast,180,2012-03-06 10:34:00
5:53 AM,24.1,20.3,85,30.14,10.0,South,6.9,-,N/A,,Overcast,170,2012-03-06 10:53:00
6:14 AM,24.4,20.3,84,30.13,10.0,South,6.9,-,N/A,,Overcast,170,2012-03-06 11:14:00
6:34 AM,24.4,20.3,84,30.12,10.0,South,5.8,-,N/A,,Overcast,170,2012-03-06 11:34:00
6:54 AM,24.6,20.3,84,30.11,10.0,South,6.9,-,N/A,,Overcast,180,2012-03-06 11:54:00
7:34 AM,25.3,21.0,84,30.09,10.0,South,5.8,17.3,N/A,,Overcast,170,2012-03-06 12:34:00
7:54 AM,25.7,21.2,83,30.09,10.0,South,8.1,-,N/A,,Overcast,170,2012-03-06 12:54:00
8:14 AM,26.2,21.4,82,30.09,10.0,South,6.9,18.4,N/A,,Overcast,170,2012-03-06 13:14:00
8:33 AM,26.6,21.6,81,30.09,10.0,South,6.9,-,N/A,,Mostly Cloudy,180,2012-03-06 13:33:00
8:54 AM,27.0,21.7,81,30.08,10.0,South,4.6,-,N/A,,Scattered Clouds,180,2012-03-06 13:54:00
9:14 AM,27.5,22.1,80,30.07,10.0,South,6.9,-,N/A,,Clear,190,2012-03-06 14:14:00
9:34 AM,28.2,22.5,79,30.07,10.0,South,6.9,-,N/A,,Clear,190,2012-03-06 14:34:00
9:53 AM,28.8,22.8,78,30.06,10.0,South,4.6,-,N/A,,Scattered Clouds,190,2012-03-06 14:53:00
10:14 AM,29.7,23.0,76,30.06,10.0,South,3.5,-,N/A,,Clear,180,2012-03-06 15:14:00
10:34 AM,30.7,23.2,74,30.05,10.0,South,4.6,-,N/A,,Clear,190,2012-03-06 15:34:00
10:54 AM,31.6,23.5,72,30.05,10.0,SSE,3.5,-,N/A,,Clear,160,2012-03-06 15:54:00
11:14 AM,32.4,23.9,71,30.04,10.0,SSE,5.8,-,N/A,,Clear,150,2012-03-06 16:14:00
11:34 AM,33.3,24.3,70,30.03,10.0,SSE,3.5,-,N/A,,Clear,160,2012-03-06 16:34:00
11:54 AM,34.2,25.0,69,30.02,10.0,Calm,Calm,-,N/A,,Clear,0,2012-03-06 16:54:00
12:14 PM,34.9,24.8,67,30.01,10.0,SSE,4.6,-,N/A,,Clear,150,2012-03-06 17:14:00
12:33 PM,35.6,25.7,67,30.00,10.0,SSE,4.6,-,N/A,,Clear,150,2012-03-06 17:33:00
12:54 PM,36.9,26.2,65,29.99,10.0,SSE,5.8,-,N/A,,Clear,160,2012-03-06 17:54:00
1:14 PM,37.0,26.2,65,29.98,10.0,SSE,3.5,-,N/A,,Clear,150,2012-03-06 18:14:00
1:54 PM,37.4,27.3,67,29.95,10.0,South,4.6,-,N/A,,Clear,170,2012-03-06 18:54:00
2:34 PM,37.4,28.0,69,29.92,10.0,Calm,Calm,-,N/A,,Mostly Cloudy,0,2012-03-06 19:34:00
2:54 PM,37.4,28.0,69,29.92,10.0,Calm,Calm,-,N/A,,Mostly Cloudy,0,2012-03-06 19:54:00
3:14 PM,37.8,27.9,67,29.91,10.0,SSE,5.8,-,N/A,,Mostly Cloudy,160,2012-03-06 20:14:00
3:34 PM,38.3,28.8,69,29.89,10.0,SE,4.6,-,N/A,,Scattered Clouds,140,2012-03-06 20:34:00
3:54 PM,38.3,29.3,70,29.89,10.0,SE,4.6,-,N/A,,Clear,140,2012-03-06 20:54:00
4:14 PM,37.9,29.5,72,29.88,7.0,SSE,5.8,-,N/A,,Clear,150,2012-03-06 21:14:00
4:34 PM,38.8,30.2,71,29.88,10.0,SE,5.8,-,N/A,,Scattered Clouds,130,2012-03-06 21:34:00
4:54 PM,38.1,30.9,75,29.86,10.0,ESE,5.8,-,N/A,,Clear,120,2012-03-06 21:54:00
5:14 PM,37.4,31.1,78,29.86,10.0,SE,5.8,-,N/A,,Clear,130,2012-03-06 22:14:00
5:34 PM,37.8,31.1,77,29.85,10.0,Calm,Calm,-,N/A,,Clear,0,2012-03-06 22:34:00
5:54 PM,36.9,31.5,81,29.84,10.0,Calm,Calm,-,N/A,,Clear,0,2012-03-06 22:54:00
6:14 PM,36.9,31.5,81,29.85,10.0,ESE,3.5,-,N/A,,Clear,120,2012-03-06 23:14:00
6:34 PM,36.7,31.5,81,29.85,10.0,ESE,4.6,-,N/A,,Clear,120,2012-03-06 23:34:00
6:53 PM,36.5,31.3,81,29.84,10.0,SE,4.6,-,N/A,,Clear,130,2012-03-06 23:53:00
7:54 PM,37.8,31.6,79,29.82,10.0,SE,3.5,-,N/A,,Mostly Cloudy,130,2012-03-07 00:54:00
8:34 PM,37.8,31.6,79,29.82,10.0,Calm,Calm,-,N/A,,Mostly Cloudy,0,2012-03-07 01:34:00
8:54 PM,37.6,31.6,79,29.82,10.0,ESE,3.5,-,N/A,,Scattered Clouds,120,2012-03-07 01:54:00
9:14 PM,37.9,31.5,77,29.82,10.0,SE,3.5,-,N/A,,Clear,140,2012-03-07 02:14:00
9:34 PM,39.2,31.5,74,29.82,10.0,SSE,3.5,-,N/A,,Clear,150,2012-03-07 02:34:00
10:13 PM,38.5,31.6,76,29.81,10.0,SE,3.5,-,N/A,,Clear,140,2012-03-07 03:13:00
10:54 PM,38.8,32.0,76,29.80,10.0,SSE,4.6,-,N/A,,Clear,150,2012-03-07 03:54:00
11:14 PM,39.4,32.0,75,29.79,10.0,SSE,4.6,-,N/A,,Clear,160,2012-03-07 04:14:00
11:34 PM,39.2,32.0,75,29.79,10.0,Calm,Calm,-,N/A,,Clear,0,2012-03-07 04:34:00
11:54 PM,36.9,31.6,81,29.79,10.0,Calm,Calm,-,N/A,,Clear,0,2012-03-07 04:54:00